Roanoke, VA

9:53 PM EST on November 22, 2019 (GMT -0500)
Roanoke Regional-Woodrum

Weather History for KROA - September, 2019

Change the Weather History Date:

Wednesday, September 18, 2019

  Actual Average Record
Temperature  
Mean Temperature 72 °F 67 °F  
Max Temperature 77 °F 78 °F 94 °F (1954)
Min Temperature 67 °F 57 °F 38 °F (1943)
Degree Days  
Heating Degree Days 0 2  
Month to date heating degree days 0 11  
Since 1 July heating degree days 0 12  
Cooling Degree Days 7 4  
Month to date cooling degree days 210 108  
Year to date cooling degree days 1573 1155  
Growing Degree Days 22 (Base 50)    
Moisture  
Dew Point 60 °F    
Average Humidity 69    
Maximum Humidity 84    
Minimum Humidity 53    
Precipitation  
Precipitation 0.00 in 0.14 in 6.13 in (1944)
Month to date precipitation 0.80 2.47  
Year to date precipitation 31.50 30.60  
Snow  
Snow 0.00 in - - ()
Month to date snowfall 0.0  
Since 1 July snowfall T  
Since 1 September snowfall 0.0  
Snow Depth 0.00 in    
Sea Level Pressure  
Sea Level Pressure 30.17 in    
Wind  
Wind Speed 6 mph (SE)    
Max Wind Speed 14 mph    
Max Gust Speed 16 mph    
Visibility 10 miles    
Events      
T = Trace of Precipitation, MM = Missing Value Source: NWS Daily Summary

Daily Weather History Graph

Daily Weather History Graph

Search for Another Location

Airport or City:

Astronomy

Sep. 18, 2019 Rise Set
Actual Time 7:04 AM EDT 7:23 PM EDT
Civil Twilight 6:38 AM EDT 7:49 PM EDT
Nautical Twilight 6:07 AM EDT 8:19 PM EDT
Astronomical Twilight 5:36 AM EDT 8:51 PM EDT
Moon 10:01 PM EDT (9/18) 11:01 AM EDT (9/18)
Length of Visible Light 13h 11m
Length of Day
12h 19m
Waning Gibbous, 82% of the Moon is Illuminated
Sep 18
Waning Gibbous
Sep 21
Last Quarter
Sep 28
New
Oct 5
First Quarter
Oct 13
Full

Hourly Weather History & Observations

Time (EDT) Temp. Dew Point Humidity Pressure Visibility Wind Dir Wind Speed Gust Speed Precip Events Conditions
12:54 AM 70.0 °F 63.0 °F 78% 30.11 in 10.0 mi NE 4.6 mph - N/A   Overcast
1:25 AM 70.0 °F 63.0 °F 78% 30.16 in 10.0 mi Calm Calm - N/A   Overcast
1:54 AM 70.0 °F 63.0 °F 78% 30.13 in 10.0 mi ENE 4.6 mph - N/A   Overcast
2:05 AM 70.0 °F 64.0 °F 81% 30.16 in 10.0 mi Calm Calm - N/A   Overcast
2:54 AM 70.0 °F 64.0 °F 81% 30.12 in 10.0 mi Calm Calm - N/A   Overcast
3:54 AM 69.1 °F 63.0 °F 81% 30.13 in 10.0 mi SSE 3.5 mph - N/A   Overcast
4:54 AM 69.1 °F 63.0 °F 81% 30.13 in 10.0 mi SSE 4.6 mph - N/A   Overcast
5:54 AM 68.0 °F 63.0 °F 84% 30.14 in 10.0 mi SE 6.9 mph - N/A   Overcast
6:54 AM 68.0 °F 63.0 °F 84% 30.15 in 10.0 mi SSE 4.6 mph - N/A   Overcast
7:54 AM 68.0 °F 63.0 °F 84% 30.16 in 10.0 mi ESE 6.9 mph - N/A   Overcast
8:54 AM 69.1 °F 63.0 °F 81% 30.17 in 10.0 mi SE 6.9 mph - N/A   Overcast
9:54 AM 69.1 °F 63.0 °F 81% 30.18 in 10.0 mi Variable 3.5 mph - N/A   Overcast
10:54 AM 69.1 °F 62.1 °F 78% 30.19 in 10.0 mi SSE 5.8 mph - N/A   Overcast
11:18 AM 69.1 °F 62.1 °F 78% 30.21 in 10.0 mi SSE 8.1 mph - N/A   Overcast
11:41 AM 69.1 °F 61.0 °F 75% 30.21 in 10.0 mi ESE 6.9 mph - N/A   Overcast
11:54 AM 69.1 °F 61.0 °F 75% 30.19 in 10.0 mi ESE 6.9 mph - N/A   Overcast
12:18 PM 69.1 °F 61.0 °F 75% 30.22 in 10.0 mi SE 11.5 mph - N/A   Overcast
12:54 PM 69.1 °F 61.0 °F 75% 30.19 in 9.0 mi SE 8.1 mph - N/A   Overcast
1:36 PM 71.1 °F 61.0 °F 70% 30.21 in 9.0 mi ESE 6.9 mph - N/A   Overcast
1:54 PM 71.1 °F 61.0 °F 70% 30.19 in 10.0 mi SE 6.9 mph - N/A   Overcast
2:17 PM 73.9 °F 62.1 °F 66% 30.21 in 10.0 mi SE 5.8 mph - N/A   Mostly Cloudy
2:54 PM 75.0 °F 61.0 °F 62% 30.17 in 10.0 mi South 6.9 mph - N/A   Mostly Cloudy
3:54 PM 75.0 °F 60.1 °F 60% 30.16 in 10.0 mi South 6.9 mph - N/A   Scattered Clouds
4:54 PM 75.9 °F 59.0 °F 56% 30.14 in 10.0 mi South 5.8 mph - N/A   Scattered Clouds
5:54 PM 75.0 °F 57.9 °F 55% 30.15 in 10.0 mi SE 3.5 mph - N/A   Scattered Clouds
6:54 PM 72.0 °F 57.0 °F 59% 30.15 in 10.0 mi SE 3.5 mph - N/A   Partly Cloudy
7:54 PM 73.0 °F 55.0 °F 53% 30.17 in 10.0 mi East 5.8 mph - N/A   Mostly Cloudy
8:54 PM 68.0 °F 54.0 °F 61% 30.19 in 10.0 mi SE 6.9 mph - N/A   Mostly Cloudy
9:54 PM 70.0 °F 53.1 °F 55% 30.21 in 10.0 mi ESE 4.6 mph - N/A   Mostly Cloudy
10:54 PM 69.1 °F 52.0 °F 54% 30.23 in 10.0 mi SE 6.9 mph - N/A   Overcast
11:54 PM 68.0 °F 51.1 °F 55% 30.24 in 10.0 mi ESE 10.4 mph - N/A   Overcast